GW2345 Weather Reports


Display with metric or nautical units.
time (UTC)temp
F
wind
direction
speed
MPH
gust
MPH
rain 1hr
in
rain 24hr
in
rain mn
in
humidity
%
barometer
mb
20260906233611 95 152 1.0 2.0 0.00 0.12 0.12 44 1013.5
20260906233110 95 159 0.0 6.0 0.00 0.12 0.12 46 1013.3
20260906232606 95 137 3.0 6.0 0.00 0.12 0.12 47 1013.7
20260906232106 95 131 1.0 5.0 0.00 0.12 0.12 46 1013.5
20260906231600 95 153 3.0 3.0 0.00 0.12 0.12 46 1013.7
20260906231056 95 159 2.0 2.0 0.00 0.12 0.12 46 1013.4
20260906230555 94 206 4.0 6.0 0.00 0.12 0.12 46 1013.6
20260906230054 94 171 3.0 5.0 0.00 0.12 0.12 47 1013.5
20260906225549 94 155 0.0 1.0 0.00 0.12 0.12 48 1013.4
20260906225044 94 219 7.0 10.0 0.00 0.12 0.12 47 1013.5
20260906224540 94 152 1.0 2.0 0.00 0.12 0.12 48 1013.5
20260906224037 95 163 4.0 6.0 0.00 0.12 0.12 47 1013.6
20260906223532 95 156 0.0 1.0 0.00 0.12 0.12 46 1013.5
20260906223032 97 180 3.0 5.0 0.00 0.12 0.12 44 1013.5
20260906222531 95 167 3.0 6.0 0.00 0.12 0.12 46 1013.7
20260906222028 95 186 3.0 7.0 0.00 0.12 0.12 47 1013.9
20260906221527 97 192 3.0 7.0 0.00 0.12 0.12 44 1013.8
20260906221023 97 183 1.0 8.0 0.00 0.12 0.12 44 1013.9
20260906220523 96 158 0.0 2.0 0.00 0.12 0.12 42 1014.0
20260906220019 97 208 1.0 5.0 0.00 0.12 0.12 43 1013.9
20260906215517 96 167 2.0 2.0 0.00 0.12 0.12 45 1013.9
20260906215015 96 151 4.0 6.0 0.00 0.12 0.12 44 1013.8
20260906214514 94 173 3.0 6.0 0.00 0.12 0.12 46 1014.2
20260906214009 91 150 2.0 3.0 0.00 0.12 0.12 51 1014.1
20260906213509 92 146 1.0 1.0 0.00 0.12 0.12 53 1013.9
20260906213009 90 137 0.0 0.0 0.00 0.12 0.12 58 1014.0
20260906212456 89 138 0.0 0.0 0.00 0.12 0.12 60 1014.4
20260906211951 89 137 0.0 0.0 0.00 0.12 0.12 65 1014.3
20260906211446 90 139 0.0 0.0 0.00 0.12 0.12 59 1014.4
20260906210941 92 136 0.0 1.0 0.00 0.12 0.12 56 1014.5
20260906210437 94 162 0.0 3.0 0.00 0.12 0.12 51 1014.5
20260906205930 95 162 0.0 3.0 0.00 0.12 0.12 47 1014.9
20260906205427 95 158 0.0 2.0 0.00 0.12 0.12 46 1014.7
20260906204923 94 143 0.0 1.0 0.00 0.12 0.12 46 1014.6
20260906204422 97 90 2.0 3.0 0.00 0.12 0.12 46 1014.7
20260906203921 97 167 1.0 3.0 0.00 0.12 0.12 43 1014.7
20260906203416 98 153 1.0 3.0 0.00 0.12 0.12 43 1014.9
20260906202914 98 141 2.0 3.0 0.00 0.12 0.12 42 1015.0
20260906202408 96 182 1.0 5.0 0.00 0.12 0.12 44 1015.1
20260906201908 96 183 3.0 5.0 0.00 0.12 0.12 45 1015.3
20260906201402 95 220 3.0 7.0 0.00 0.12 0.12 46 1015.0
20260906200857 95 238 5.0 7.0 0.00 0.12 0.12 47 1015.2
20260906200348 95 204 3.0 5.0 0.00 0.12 0.12 49 1015.4
20260906195848 94 200 2.0 3.0 0.00 0.12 0.12 48 1015.4
20260906195344 94 157 1.0 3.0 0.00 0.12 0.12 50 1015.2
20260906194840 91 149 1.0 2.0 0.00 0.12 0.12 53 1015.4
20260906194336 91 182 1.0 5.0 0.00 0.12 0.12 53 1015.4
20260906193831 92 199 6.0 7.0 0.00 0.12 0.12 53 1015.6
20260906193326 92 155 1.0 2.0 0.00 0.12 0.12 53 1015.6
20260906192821 92 157 1.0 5.0 0.00 0.12 0.12 53 1015.7
20260906192316 92 153 3.0 3.0 0.00 0.12 0.12 52 1015.6
20260906191815 91 142 0.0 1.0 0.00 0.12 0.12 52 1015.8
20260906191310 92 167 3.0 5.0 0.00 0.12 0.12 52 1015.8
20260906190809 91 153 1.0 1.0 0.00 0.12 0.12 53 1015.8
20260906190309 91 142 1.0 3.0 0.00 0.12 0.12 52 1016.0
20260906185803 91 151 0.0 2.0 0.00 0.12 0.12 54 1016.0
20260906185306 91 151 3.0 5.0 0.00 0.12 0.12 53 1015.9
20260906184757 91 154 2.0 6.0 0.00 0.12 0.12 53 1016.2
20260906184252 90 169 2.0 3.0 0.00 0.12 0.12 56 1016.2
20260906183748 91 201 2.0 5.0 0.00 0.12 0.12 57 1016.3
20260906183244 89 153 0.0 0.0 0.00 0.12 0.12 57 1016.2
20260906182744 89 140 1.0 3.0 0.00 0.12 0.12 59 1016.5
20260906182240 90 123 2.0 3.0 0.00 0.12 0.12 58 1016.3
20260906181735 92 185 1.0 2.0 0.00 0.12 0.12 58 1016.4
20260906181231 89 163 2.0 3.0 0.00 0.12 0.12 59 1016.7
20260906180725 90 101 3.0 3.0 0.00 0.12 0.12 60 1016.9
20260906180221 90 143 1.0 1.0 0.00 0.12 0.12 63 1017.0
20260906175718 89 140 1.0 3.0 0.00 0.12 0.12 58 1016.8
20260906175214 88 176 2.0 3.0 0.00 0.12 0.12 64 1017.1
20260906174712 86 160 1.0 2.0 0.00 0.12 0.12 66 1017.0
20260906174207 83 150 0.0 2.0 0.00 0.12 0.12 72 1016.9
20260906173702 83 137 0.0 0.0 0.00 0.12 0.12 75 1017.3
20260906173158 84 160 1.0 2.0 0.00 0.12 0.12 77 1017.3
20260906172657 83 153 0.0 1.0 0.00 0.12 0.12 77 1017.5
20260906172153 82 153 0.0 1.0 0.00 0.12 0.12 79 1017.6
20260906171653 82 153 0.0 1.0 0.00 0.12 0.12 82 1017.6
20260906171148 82 145 0.0 0.0 0.31 0.12 0.12 83 1017.7
20260906170644 83 145 0.0 1.0 0.24 0.11 0.11 79 1017.9
20260906170143 83 130 1.0 2.0 0.00 0.07 0.07 77 1017.9
20260906165640 83 150 0.0 1.0 0.00 0.07 0.07 78 1017.7
20260906165135 83 153 1.0 2.0 0.00 0.07 0.07 78 1017.9
20260906164633 80 136 0.0 0.0 0.00 0.07 0.07 82 1017.9
20260906164130 81 143 0.0 1.0 0.00 0.07 0.07 81 1017.8
20260906163625 80 122 0.0 1.0 0.00 0.07 0.07 83 1017.8
20260906163121 80 138 0.0 0.0 0.00 0.07 0.07 81 1017.8
20260906162618 80 139 0.0 0.0 0.07 0.07 0.07 81 1017.9
20260906162113 82 135 0.0 0.0 0.24 0.07 0.07 79 1017.8
20260906161613 83 138 0.0 0.0 0.19 0.05 0.05 76 1018.1
20260906161112 82 137 0.0 0.0 0.00 0.02 0.02 73 1017.9
20260906160610 82 139 0.0 0.0 0.00 0.02 0.02 73 1017.9
20260906160109 82 138 0.0 0.0 0.00 0.02 0.02 74 1017.9
20260906155607 81 138 0.0 0.0 0.00 0.02 0.02 75 1017.9
20260906155103 81 141 0.0 0.0 0.00 0.02 0.02 78 1017.7
20260906154558 80 157 0.0 1.0 0.00 0.02 0.02 82 1017.7
20260906154057 80 154 0.0 0.0 0.00 0.02 0.02 87 1017.8
20260906153556 80 154 0.0 1.0 0.00 0.02 0.02 89 1017.7
20260906153051 80 153 0.0 1.0 0.00 0.02 0.02 89 1017.5
20260906152550 79 159 0.0 0.0 0.00 0.02 0.02 87 1017.6
20260906152045 79 151 0.0 0.0 0.00 0.02 0.02 88 1017.4
20260906151540 79 142 0.0 1.0 0.00 0.02 0.02 90 1017.5
20260906151036 79 146 0.0 0.0 0.00 0.02 0.02 91 1017.5
20260906150531 78 136 0.0 0.0 0.00 0.02 0.02 91 1017.4
20260906150026 77 141 0.0 0.0 0.00 0.02 0.02 91 1017.3
20260906145524 77 141 0.0 1.0 0.05 0.02 0.02 91 1017.4
20260906145020 77 149 0.0 0.0 0.12 0.02 0.02 92 1017.4
20260906144508 77 148 1.0 2.0 0.07 0.01 0.01 90 1017.2
20260906144003 78 145 1.0 3.0 0.00 0.00 0.00 88 1017.6
20260906143458 79 176 1.0 2.0 0.00 0.00 0.00 88 1017.2
20260906142955 80 160 1.0 3.0 0.00 0.00 0.00 85 1017.2
20260906142448 80 148 0.0 2.0 0.00 0.00 0.00 83 1017.3
20260906141943 80 144 0.0 2.0 0.00 0.00 0.00 83 1017.4
20260906141437 80 144 0.0 1.0 0.00 0.00 0.00 83 1017.2
20260906140932 81 180 3.0 3.0 0.00 0.00 0.00 83 1017.4
20260906140427 81 145 0.0 3.0 0.00 0.00 0.00 83 1017.2
20260906135924 81 161 2.0 2.0 0.00 0.00 0.00 82 1017.1
20260906135418 81 148 0.0 2.0 0.00 0.00 0.00 82 1017.0
20260906134914 80 146 0.0 0.0 0.00 0.00 0.00 83 1017.1
20260906134409 80 152 0.0 1.0 0.00 0.00 0.00 83 1016.9
20260906133904 80 139 0.0 1.0 0.00 0.00 0.00 83 1016.7
20260906133400 80 144 0.0 0.0 0.00 0.00 0.00 83 1016.8
20260906132855 80 149 0.0 0.0 0.00 0.00 0.00 84 1016.7
20260906132350 79 152 0.0 0.0 0.00 0.00 0.00 85 1016.7
20260906131846 79 152 0.0 0.0 0.00 0.00 0.00 85 1016.7
20260906131341 79 152 0.0 0.0 0.00 0.00 0.00 86 1016.6
20260906130837 79 152 0.0 0.0 0.00 0.00 0.00 86 1016.5
20260906130336 78 148 0.0 0.0 0.00 0.00 0.00 87 1016.5
20260906125835 78 156 0.0 0.0 0.00 0.00 0.00 88 1016.6
20260906125332 77 139 0.0 0.0 0.00 0.00 0.00 89 1016.4
20260906124828 76 140 0.0 0.0 0.00 0.00 0.00 90 1016.3
20260906124324 75 140 0.0 0.0 0.00 0.00 0.00 90 1016.2
20260906123823 75 140 0.0 0.0 0.00 0.00 0.00 90 1016.1
20260906123318 75 140 0.0 0.0 0.00 0.00 0.00 90 1016.1
20260906122817 75 139 0.0 0.0 0.00 0.00 0.00 90 1016.1
20260906122312 75 140 0.0 0.0 0.00 0.00 0.00 91 1016.0
20260906121809 75 139 0.0 0.0 0.00 0.00 0.00 91 1015.8
20260906121259 75 141 0.0 0.0 0.00 0.00 0.00 91 1015.8
20260906120754 75 137 0.0 0.0 0.00 0.00 0.00 92 1015.8
20260906120246 75 151 0.0 0.0 0.00 0.00 0.00 92 1015.6
20260906115741 74 151 0.0 0.0 0.00 0.00 0.00 92 1015.6
20260906115236 74 152 0.0 0.0 0.00 0.00 0.00 92 1015.8
20260906114735 74 152 0.0 0.0 0.00 0.00 0.00 92 1015.5
20260906114230 74 152 0.0 0.0 0.00 0.00 0.00 92 1015.5
20260906113726 74 152 0.0 0.0 0.00 0.00 0.00 92 1015.5
20260906113224 74 152 0.0 0.0 0.00 0.00 0.00 92 1015.3
20260906112719 74 152 0.0 0.0 0.00 0.00 0.00 91 1015.5
20260906112216 75 152 0.0 0.0 0.00 0.00 0.00 92 1015.2
20260906111715 75 152 0.0 0.0 0.00 0.00 0.00 92 1015.2
20260906111210 75 152 0.0 0.0 0.00 0.00 0.00 92 1015.3
20260906110704 75 152 0.0 0.0 0.00 0.00 0.00 92 1015.0
20260906110154 75 152 0.0 0.0 0.00 0.00 0.00 91 1015.1
20260906105648 75 152 0.0 0.0 0.00 0.00 0.00 91 1014.9
20260906105144 75 152 0.0 0.0 0.00 0.00 0.00 91 1014.9
20260906104643 75 152 0.0 0.0 0.00 0.00 0.00 90 1015.0
20260906104137 75 152 0.0 0.0 0.00 0.00 0.00 90 1014.9
20260906103635 75 152 0.0 0.0 0.00 0.00 0.00 90 1014.9
20260906103130 76 151 0.0 0.0 0.00 0.00 0.00 90 1014.9
20260906102625 76 151 0.0 0.0 0.00 0.00 0.00 90 1014.9
20260906102114 76 151 0.0 0.0 0.00 0.00 0.00 89 1015.0
20260906101608 76 151 0.0 0.0 0.00 0.00 0.00 89 1014.9
20260906101103 77 151 0.0 0.0 0.00 0.00 0.00 89 1014.9
20260906100558 76 151 0.0 0.0 0.00 0.00 0.00 89 1014.7
20260906100053 77 152 0.0 0.0 0.00 0.00 0.00 89 1014.7
20260906095548 77 152 0.0 0.0 0.00 0.00 0.00 89 1014.5
20260906095043 77 151 0.0 0.0 0.00 0.00 0.00 88 1014.7
20260906094542 77 152 0.0 0.0 0.00 0.00 0.00 88 1015.1
20260906094038 77 152 0.0 0.0 0.00 0.00 0.00 87 1014.9
20260906093534 77 152 0.0 0.0 0.00 0.00 0.00 87 1014.7
20260906093034 78 152 0.0 0.0 0.00 0.00 0.00 86 1014.6
20260906092528 78 152 0.0 0.0 0.00 0.00 0.00 86 1014.9
20260906092024 78 152 0.0 0.0 0.00 0.00 0.00 85 1014.7
20260906091514 78 152 0.0 0.0 0.00 0.00 0.00 85 1014.5
20260906091011 79 153 0.0 0.0 0.00 0.00 0.00 85 1014.6
20260906090510 79 147 0.0 0.0 0.00 0.00 0.00 84 1014.6
20260906090005 79 169 0.0 2.0 0.00 0.00 0.00 84 1014.5
20260906085504 79 147 0.0 1.0 0.00 0.00 0.00 84 1014.4
20260906085004 79 151 0.0 0.0 0.00 0.00 0.00 83 1014.5
20260906084459 80 152 0.0 0.0 0.00 0.00 0.00 83 1014.7
20260906083957 80 152 0.0 1.0 0.00 0.00 0.00 83 1014.5
20260906083453 80 151 1.0 2.0 0.00 0.00 0.00 83 1014.7
20260906082952 80 152 0.0 0.0 0.00 0.00 0.00 83 1014.5
20260906082448 80 147 0.0 0.0 0.00 0.00 0.00 83 1014.4
20260906081943 80 151 0.0 0.0 0.00 0.00 0.00 83 1014.7
20260906081438 80 148 0.0 2.0 0.00 0.00 0.00 83 1014.7
20260906080934 80 147 0.0 2.0 0.00 0.00 0.00 83 1014.7
20260906080431 80 151 0.0 1.0 0.00 0.00 0.00 83 1014.9
20260906075931 80 144 0.0 2.0 0.00 0.00 0.00 82 1014.6
20260906075426 80 147 0.0 1.0 0.00 0.00 0.00 82 1014.6
20260906074920 80 147 0.0 2.0 0.00 0.00 0.00 82 1014.7
20260906074415 80 143 0.0 1.0 0.00 0.00 0.00 82 1014.9
20260906073914 80 145 0.0 1.0 0.00 0.00 0.00 81 1015.1
20260906073409 80 140 0.0 1.0 0.00 0.00 0.00 81 1015.0
20260906072905 80 156 0.0 1.0 0.00 0.00 0.00 81 1015.0
20260906072400 80 164 0.0 2.0 0.00 0.00 0.00 81 1015.1
20260906071856 80 145 0.0 5.0 0.00 0.00 0.00 81 1015.1
20260906071351 80 148 0.0 1.0 0.00 0.00 0.00 81 1015.4
20260906070847 80 136 0.0 2.0 0.00 0.00 0.00 81 1015.5
20260906070342 80 146 1.0 2.0 0.00 0.00 0.00 81 1015.2
20260906065832 80 146 0.0 2.0 0.00 0.00 0.00 80 1015.3
20260906065326 80 163 0.0 1.0 0.00 0.00 0.00 80 1015.4
20260906064822 80 169 1.0 2.0 0.00 0.00 0.00 80 1015.7
20260906064318 81 149 1.0 2.0 0.00 0.00 0.00 80 1015.6
20260906063813 81 158 2.0 2.0 0.00 0.00 0.00 80 1015.5
20260906063309 81 140 0.0 2.0 0.00 0.00 0.00 80 1015.5
20260906062804 81 150 0.0 2.0 0.00 0.00 0.00 79 1015.8
20260906062306 81 143 0.0 2.0 0.00 0.00 0.00 79 1015.7
20260906061758 81 166 2.0 5.0 0.00 0.00 0.00 79 1015.8
20260906061255 81 147 0.0 2.0 0.00 0.00 0.00 78 1015.7
20260906060750 81 198 1.0 2.0 0.00 0.00 0.00 78 1015.6
20260906060247 81 164 2.0 5.0 0.00 0.00 0.00 78 1015.7
20260906055743 81 154 2.0 3.0 0.00 0.00 0.00 78 1015.6
20260906055238 81 146 0.0 3.0 0.00 0.00 0.00 77 1015.6
20260906054733 81 180 1.0 2.0 0.00 0.00 0.00 77 1015.7
20260906054228 81 147 0.0 1.0 0.00 0.00 0.00 77 1015.6
20260906053725 82 163 0.0 1.0 0.00 0.00 0.00 77 1015.6
20260906053220 82 165 0.0 1.0 0.00 0.00 0.00 77 1015.9
20260906052715 82 151 1.0 2.0 0.00 0.00 0.00 77 1015.9
20260906052211 82 144 0.0 1.0 0.00 0.00 0.00 76 1015.6
20260906051708 82 152 0.0 3.0 0.00 0.00 0.00 76 1015.6
20260906051207 82 156 1.0 2.0 0.00 0.00 0.00 76 1015.7
20260906050703 82 147 0.0 2.0 0.00 0.00 0.00 76 1015.9
20260906050158 82 149 0.0 2.0 0.00 0.00 0.00 76 1016.0
20260906045656 82 147 0.0 2.0 0.00 0.00 0.00 75 1015.9
20260906045151 82 184 2.0 2.0 0.00 0.00 0.00 75 1015.8
20260906044648 82 187 1.0 7.0 0.00 0.00 0.00 75 1015.8
20260906044143 82 167 1.0 6.0 0.00 0.00 0.00 75 1015.8
20260906043638 82 149 2.0 3.0 0.00 0.00 0.00 75 1015.7
20260906043133 82 162 1.0 2.0 0.00 0.00 0.00 75 1015.9
20260906042633 82 159 2.0 5.0 0.00 0.00 0.00 75 1015.8
20260906042128 82 145 1.0 2.0 0.00 0.00 0.00 74 1015.9
20260906041623 82 146 1.0 5.0 0.00 0.00 0.00 74 1015.8
20260906041118 82 146 0.0 5.0 0.00 0.00 0.00 74 1015.9
20260906040614 82 140 1.0 3.0 0.00 0.00 0.00 73 1015.8
20260906040109 82 144 0.0 2.0 0.00 0.00 0.00 73 1016.0
20260906035604 83 135 1.0 6.0 0.00 0.00 0.00 73 1015.7
20260906035059 83 155 2.0 6.0 0.00 0.00 0.00 72 1015.7
20260906034554 83 127 2.0 3.0 0.00 0.00 0.00 72 1015.7
20260906034049 83 145 2.0 3.0 0.00 0.00 0.00 71 1015.9
20260906033544 83 141 1.0 5.0 0.00 0.00 0.00 71 1015.8
20260906033039 84 150 1.0 6.0 0.00 0.00 0.00 71 1015.7
20260906032536 84 147 3.0 6.0 0.00 0.00 0.00 70 1015.7
20260906032030 84 122 1.0 6.0 0.00 0.00 0.00 70 1015.8
20260906031526 84 141 2.0 6.0 0.00 0.00 0.00 69 1015.4
20260906031021 84 156 4.0 9.0 0.00 0.00 0.00 69 1015.6
20260906030521 84 106 5.0 6.0 0.00 0.00 0.00 69 1015.6
20260906030020 85 150 5.0 9.0 0.00 0.00 0.00 69 1015.3
20260906025520 85 109 3.0 5.0 0.00 0.00 0.00 69 1015.6
20260906025018 85 147 4.0 7.0 0.00 0.00 0.00 68 1015.3
20260906024514 86 187 4.0 8.0 0.00 0.00 0.00 68 1015.2
20260906024008 86 159 7.0 8.0 0.00 0.00 0.00 67 1014.9
20260906023504 86 147 6.0 9.0 0.00 0.00 0.00 66 1015.1
20260906022958 86 133 2.0 7.0 0.00 0.00 0.00 64 1015.0
20260906022449 86 147 3.0 7.0 0.00 0.00 0.00 63 1014.7
20260906021943 87 142 3.0 7.0 0.00 0.00 0.00 62 1014.5
20260906021438 87 76 6.0 10.0 0.00 0.00 0.00 61 1014.4
20260906020932 87 110 6.0 8.0 0.00 0.00 0.00 60 1014.3
20260906020427 87 154 2.0 6.0 0.00 0.00 0.00 58 1014.2
20260906015921 87 135 3.0 7.0 0.00 0.00 0.00 57 1014.0
20260906015420 87 135 3.0 7.0 0.00 0.00 0.00 57 1013.9
20260906014915 88 164 4.0 6.0 0.00 0.00 0.00 56 1013.9
20260906014414 88 118 3.0 6.0 0.00 0.00 0.00 56 1013.8
20260906013905 88 146 5.0 9.0 0.00 0.00 0.00 55 1013.8
20260906013401 88 152 2.0 6.0 0.00 0.00 0.00 55 1013.9
20260906012856 89 137 5.0 7.0 0.00 0.00 0.00 56 1013.9
20260906012350 89 160 5.0 7.0 0.00 0.00 0.00 56 1014.0
20260906011845 89 135 2.0 7.0 0.00 0.00 0.00 57 1013.8
20260906011339 89 138 4.0 7.0 0.00 0.00 0.00 57 1013.7
20260906010835 90 184 2.0 5.0 0.00 0.00 0.00 56 1013.6
20260906010331 90 70 4.0 6.0 0.00 0.00 0.00 55 1013.6
20260906005826 91 124 2.0 8.0 0.00 0.00 0.00 54 1013.5
20260906005325 91 143 3.0 7.0 0.00 0.00 0.00 52 1013.7
20260906004824 91 133 5.0 7.0 0.00 0.00 0.00 52 1013.7
20260906004324 92 153 3.0 6.0 0.00 0.00 0.00 52 1013.8
20260906003820 92 113 3.0 5.0 0.00 0.00 0.00 52 1013.8
20260906003315 92 138 5.0 8.0 0.00 0.00 0.00 52 1013.6
20260906002810 92 150 4.0 8.0 0.00 0.00 0.00 52 1013.6
20260906002309 93 130 6.0 11.0 0.00 0.00 0.00 51 1013.6
20260906001805 93 89 3.0 6.0 0.00 0.00 0.00 51 1013.5
20260906001301 94 124 5.0 8.0 0.00 0.00 0.00 51 1013.5
20260906000755 94 133 3.0 7.0 0.00 0.00 0.00 50 1013.5
20260906000250 94 136 3.0 9.0 0.00 0.00 0.00 50 1013.4
20260905235745 95 161 5.0 9.0 0.00 0.00 0.00 49 1013.4
20260905235244 95 133 1.0 8.0 0.00 0.00 0.00 46 1013.4
20260905234740 95 135 4.0 7.0 0.00 0.00 0.00 46 1013.4
20260905234235 95 133 7.0 8.0 0.00 0.00 0.00 47 1013.3